Weather History for Hayward, WI

Change the Weather History Date:

Saturday, March 23, 2013

  Actual Average Record
Temperature  
Mean Temperature 22 °F -  
Max Temperature 37 °F 52 °F 64 °F (2007)
Min Temperature 8 °F 20 °F -11 °F (2014)
Degree Days  
Heating Degree Days 42    
Moisture  
Dew Point 15 °F    
Average Humidity 70    
Maximum Humidity 88    
Minimum Humidity 48    
Precipitation  
Precipitation 0.00 in - - ()
Sea Level Pressure  
Sea Level Pressure 30.16 in    
Wind  
Wind Speed 2 mph (NE)    
Max Wind Speed 7 mph    
Max Gust Speed -    
Visibility 10 miles    
Events      
Averages and records for this station are not official NWS values.
T = Trace of Precipitation, MM = Missing Value Source: NWS Daily Summary

Daily Weather History Graph

Daily Weather History Graph

Search for Another Location

Airport:

Trip Planner

Search our weather history database for the weather conditions in past years. The results will help you decide how hot, cold, wet, or windy it might be!

Date:

Astronomy

Mar. 23, 2013 Rise Set
Actual Time 7:02 AM CDT 7:22 PM CDT
Civil Twilight 6:32 AM CDT 7:52 PM CDT
Nautical Twilight 5:57 AM CDT 8:28 PM CDT
Astronomical Twilight 5:21 AM CDT 9:04 PM CDT
Moon 3:40 PM CDT (3/23) 4:50 AM CDT (3/23)
Length of Visible Light 13h 20m
Length of Day
12h 20m
Waxing Gibbous, 85% of the Moon is Illuminated
Mar 23
Waxing Gibbous
Mar 27
Full
Apr 2
Last Quarter
Apr 10
New
Apr 18
First Quarter

Hourly Weather History & Observations

Time (CDT) Temp. Windchill Dew Point Humidity Pressure Visibility Wind Dir Wind Speed Gust Speed Precip Events Conditions
12:53 AM 12.0 °F - 8.1 °F 84% 30.14 in 10.0 mi Calm Calm - N/A   Clear
1:53 AM 10.0 °F - 5.0 °F 80% 30.15 in 10.0 mi Calm Calm - N/A   Clear
2:53 AM 8.1 °F - 3.9 °F 83% 30.14 in 10.0 mi Calm Calm - N/A   Clear
3:53 AM 10.9 °F - 8.1 °F 88% 30.14 in 10.0 mi Calm Calm - N/A   Clear
4:53 AM 12.9 °F 5.2 °F 10.0 °F 88% 30.12 in 10.0 mi NNE 4.6 mph - N/A   Clear
5:53 AM 10.9 °F - 8.1 °F 88% 30.16 in 10.0 mi Calm Calm - N/A   Scattered Clouds
6:08 AM 10.4 °F - 6.8 °F 85% 30.11 in 10.0 mi Calm Calm - N/A   Mostly Cloudy
6:53 AM 12.0 °F - 8.1 °F 84% 30.20 in 10.0 mi Calm Calm - N/A   Overcast
7:53 AM 17.1 °F - 14.0 °F 88% 30.20 in 10.0 mi Calm Calm - N/A   Overcast
8:53 AM 21.9 °F - 17.1 °F 82% 30.20 in 10.0 mi Calm Calm - N/A   Overcast
9:53 AM 24.1 °F 18.2 °F 18.0 °F 77% 30.20 in 10.0 mi East 4.6 mph - N/A   Overcast
10:53 AM 27.0 °F 19.5 °F 19.0 °F 72% 30.21 in 10.0 mi NE 6.9 mph - N/A   Overcast
11:53 AM 28.9 °F 23.9 °F 19.0 °F 67% 30.20 in 10.0 mi ESE 4.6 mph - N/A   Overcast
12:53 PM 32.0 °F 25.6 °F 19.0 °F 59% 30.18 in 10.0 mi NE 6.9 mph - N/A   Partly Cloudy
1:53 PM 34.0 °F 28.8 °F 19.0 °F 54% 30.17 in 10.0 mi Variable 5.8 mph - N/A   Mostly Cloudy
2:53 PM 35.1 °F 30.1 °F 18.0 °F 50% 30.16 in 10.0 mi NNE 5.8 mph - N/A   Mostly Cloudy
3:53 PM 37.0 °F 31.6 °F 19.0 °F 48% 30.14 in 10.0 mi Variable 6.9 mph - N/A   Mostly Cloudy
4:53 PM 36.0 °F 32.1 °F 18.0 °F 48% 30.14 in 10.0 mi Variable 4.6 mph - N/A   Mostly Cloudy
5:53 PM 34.0 °F 31.0 °F 18.0 °F 52% 30.14 in 10.0 mi Variable 3.5 mph - N/A   Clear
6:53 PM 32.0 °F 26.4 °F 19.0 °F 59% 30.16 in 10.0 mi NE 5.8 mph - N/A   Clear
7:53 PM 30.9 °F 26.2 °F 18.0 °F 59% 30.17 in 10.0 mi ENE 4.6 mph - N/A   Overcast
8:53 PM 28.9 °F 23.9 °F 18.0 °F 64% 30.16 in 10.0 mi ENE 4.6 mph - N/A   Clear
9:53 PM 28.0 °F 20.8 °F 18.0 °F 66% 30.17 in 10.0 mi ENE 6.9 mph - N/A   Clear
10:53 PM 27.0 °F 23.0 °F 18.0 °F 69% 30.17 in 10.0 mi NE 3.5 mph - N/A   Partly Cloudy
11:53 PM 27.0 °F 21.6 °F 17.1 °F 66% 30.17 in 10.0 mi NE 4.6 mph - N/A   Clear